• In Lithuania
  • List of Countries
  • For 7 days
  • Water Temperature
  • Satellite Maps
  • Weather Map
  • Weather Widgets
  • user-avatar
    Login

    Hourly Weather Uige

    Today, 20 October, Saturday

    Time Temperature Precipitation Wind Pressure Humidity
    00:00 +23°C° 0.2 mm 1 mps 690 mmHg 91%
    01:00 +22°C° 0 mm 1 mps 690 mmHg 94%
    02:00 +22°C° 0.1 mm 1 mps 690 mmHg 95%
    03:00 +22°C° 0.1 mm 1 mps 690 mmHg 96%
    04:00 +22°C° 0.1 mm 1 mps 690 mmHg 96%
    05:00 +22°C° 0 mm 1 mps 690 mmHg 95%
    06:00 +23°C° 0 mm 1 mps 690 mmHg 93%
    07:00 +24°C° 0 mm 1 mps 691 mmHg 91%
    08:00 +26°C° 0.1 mm 1 mps 691 mmHg 83%
    09:00 +28°C° 0.1 mm 1 mps 691 mmHg 74%
    10:00 +30°C° 0.1 mm 1 mps 692 mmHg 65%
    11:00 +31°C° 0.7 mm 1 mps 691 mmHg 62%
    12:00 +31°C° 0.7 mm 1 mps 691 mmHg 60%
    13:00 +30°C° 0.7 mm 0 mps 690 mmHg 57%
    14:00 +31°C° 1.7 mm 1 mps 689 mmHg 62%
    15:00 +30°C° 1.7 mm 1 mps 689 mmHg 66%
    16:00 +29°C° 1.7 mm 1 mps 688 mmHg 70%
    17:00 +28°C° 0.3 mm 1 mps 689 mmHg 75%
    18:00 +27°C° 0.3 mm 1 mps 689 mmHg 79%
    19:00 +25°C° 0.3 mm 1 mps 689 mmHg 83%
    20:00 +25°C° 0.6 mm 1 mps 690 mmHg 86%
    21:00 +24°C° 0.6 mm 1 mps 690 mmHg 88%
    22:00 +24°C° 0.6 mm 1 mps 690 mmHg 91%
    23:00 +24°C° 0.1 mm 1 mps 690 mmHg 92%

    Tomorrow, 21 October, Sunday

    Time Temperature Precipitation Wind Pressure Humidity
    00:00 +23°C° 0.1 mm 2 mps 690 mmHg 94%
    01:00 +23°C° 0.1 mm 2 mps 690 mmHg 95%
    02:00 +23°C° 0 mm 2 mps 690 mmHg 95%
    03:00 +23°C° 0 mm 2 mps 690 mmHg 95%
    04:00 +23°C° 0 mm 2 mps 689 mmHg 94%
    05:00 +23°C° 0.2 mm 2 mps 690 mmHg 93%
    06:00 +23°C° 0.2 mm 1 mps 690 mmHg 92%
    07:00 +23°C° 0.2 mm 1 mps 691 mmHg 91%
    08:00 +26°C° 0.4 mm 1 mps 691 mmHg 81%
    09:00 +28°C° 0.4 mm 1 mps 691 mmHg 71%
    10:00 +30°C° 0.4 mm 1 mps 692 mmHg 61%
    11:00 +32°C° 0.3 mm 1 mps 691 mmHg 56%
    12:00 +33°C° 0.3 mm 1 mps 691 mmHg 51%
    13:00 +33°C° 0.3 mm 0 mps 690 mmHg 46%
    14:00 +32°C° 0.5 mm 0 mps 690 mmHg 49%
    15:00 +33°C° 0.5 mm 1 mps 689 mmHg 51%
    16:00 +32°C° 0.5 mm 1 mps 689 mmHg 53%
    17:00 +30°C° 1.1 mm 1 mps 689 mmHg 62%
    18:00 +28°C° 1.1 mm 1 mps 689 mmHg 71%
    19:00 +26°C° 1.1 mm 1 mps 689 mmHg 80%
    20:00 +25°C° 2.6 mm 1 mps 689 mmHg 84%
    21:00 +24°C° 2.6 mm 1 mps 690 mmHg 87%
    22:00 +24°C° 2.6 mm 2 mps 690 mmHg 91%
    23:00 +23°C° 1.3 mm 1 mps 690 mmHg 91%

    Day after tomorrow, 22 October, Monday

    Time Temperature Precipitation Wind Pressure Humidity
    00:00 +23°C° 1.3 mm 1 mps 690 mmHg 91%
    01:00 +23°C° 1.3 mm 1 mps 690 mmHg 92%
    02:00 +22°C° 0.2 mm 1 mps 690 mmHg 93%
    03:00 +22°C° 0.2 mm 1 mps 689 mmHg 94%
    04:00 +22°C° 0.2 mm 1 mps 689 mmHg 96%
    05:00 +23°C° 0 mm 1 mps 690 mmHg 95%
    06:00 +23°C° 0 mm 1 mps 690 mmHg 94%
    07:00 +23°C° 0 mm 1 mps 691 mmHg 94%
    08:00 +25°C° 0.7 mm 1 mps 691 mmHg 86%
    09:00 +26°C° 0.7 mm 1 mps 691 mmHg 79%
    10:00 +28°C° 0.7 mm 1 mps 692 mmHg 72%
    11:00 +29°C° 1.2 mm 1 mps 691 mmHg 69%
    12:00 +30°C° 1.2 mm 1 mps 690 mmHg 67%
    13:00 +30°C° 1.2 mm 1 mps 690 mmHg 64%
    14:00 +29°C° 1.6 mm 1 mps 689 mmHg 71%
    15:00 +27°C° 1.6 mm 1 mps 689 mmHg 77%
    16:00 +26°C° 1.6 mm 2 mps 688 mmHg 83%
    17:00 +25°C° 0.4 mm 1 mps 689 mmHg 86%
    18:00 +24°C° 0.4 mm 1 mps 689 mmHg 88%
    19:00 +24°C° 0.4 mm 1 mps 690 mmHg 90%
    20:00 +23°C° 0.1 mm 1 mps 690 mmHg 90%
    21:00 +23°C° 0.1 mm 1 mps 691 mmHg 89%
    22:00 +23°C° 0.1 mm 1 mps 691 mmHg 89%
    23:00 +23°C° 0 mm 1 mps 691 mmHg 89%

    23 October, Tuesday

    Time Temperature Precipitation Wind Pressure Humidity
    00:00 +21°C° 0 mm 0 mps 691 mmHg 90%
    01:00 +20°C° 0 mm 0 mps 690 mmHg 90%
    02:00 +20°C° 0.1 mm 0 mps 690 mmHg 91%
    03:00 +20°C° 0.1 mm 0 mps 690 mmHg 91%
    04:00 +22°C° 0.1 mm 1 mps 690 mmHg 91%
    05:00 +23°C° 0.2 mm 1 mps 691 mmHg 90%
    06:00 +23°C° 0.2 mm 1 mps 692 mmHg 88%
    07:00 +24°C° 0.2 mm 1 mps 692 mmHg 87%
    08:00 +25°C° 0.8 mm 2 mps 693 mmHg 81%
    09:00 +27°C° 0.8 mm 2 mps 693 mmHg 76%
    10:00 +28°C° 0.8 mm 2 mps 693 mmHg 70%
    11:00 +29°C° 0.9 mm 2 mps 693 mmHg 68%
    12:00 +29°C° 0.9 mm 2 mps 692 mmHg 66%
    13:00 +30°C° 0.9 mm 2 mps 691 mmHg 64%
    14:00 +29°C° 1.6 mm 1 mps 691 mmHg 68%
    15:00 +28°C° 1.6 mm 1 mps 690 mmHg 72%
    16:00 +28°C° 1.6 mm 1 mps 690 mmHg 77%
    17:00 +26°C° 0.5 mm 1 mps 690 mmHg 80%
    18:00 +25°C° 0.5 mm 1 mps 691 mmHg 84%
    19:00 +24°C° 0.5 mm 1 mps 691 mmHg 88%
    20:00 +24°C° 0.3 mm 1 mps 691 mmHg 89%
    21:00 +23°C° 0.3 mm 1 mps 692 mmHg 90%
    22:00 +23°C° 0.3 mm 1 mps 692 mmHg 91%
    23:00 +23°C° 0.2 mm 1 mps 692 mmHg 91%

    24 October, Wednesday

    Time Temperature Precipitation Wind Pressure Humidity
    00:00 +22°C° 0.2 mm 1 mps 691 mmHg 91%
    01:00 +22°C° 0.2 mm 1 mps 691 mmHg 90%
    02:00 +22°C° 0 mm 1 mps 691 mmHg 91%
    03:00 +21°C° 0 mm 1 mps 690 mmHg 91%
    04:00 +21°C° 0 mm 1 mps 690 mmHg 91%
    05:00 +22°C° 0 mm 1 mps 691 mmHg 89%
    06:00 +22°C° 0 mm 1 mps 691 mmHg 87%
    07:00 +23°C° 0 mm 1 mps 692 mmHg 85%
    08:00 +25°C° 0.2 mm 1 mps 692 mmHg 77%
    09:00 +27°C° 0.2 mm 1 mps 693 mmHg 69%
    10:00 +29°C° 0.2 mm 1 mps 693 mmHg 60%
    11:00 +31°C° 0.1 mm 1 mps 692 mmHg 54%
    12:00 +32°C° 0.1 mm 1 mps 692 mmHg 49%
    13:00 +33°C° 0.1 mm 1 mps 691 mmHg 43%
    14:00 +33°C° 0 mm 1 mps 691 mmHg 46%
    15:00 +32°C° 0 mm 1 mps 690 mmHg 48%
    16:00 +31°C° 0 mm 1 mps 690 mmHg 51%
    17:00 +29°C° 0.1 mm 1 mps 690 mmHg 57%
    18:00 +25°C° 0.1 mm 0 mps 690 mmHg 63%
    19:00 +23°C° 0.1 mm 0 mps 690 mmHg 68%
    20:00 +23°C° 0.1 mm 0 mps 691 mmHg 71%
    21:00 +22°C° 0.1 mm 0 mps 691 mmHg 74%
    22:00 +22°C° 0.1 mm 0 mps 691 mmHg 77%
    23:00 +23°C° 0.1 mm 1 mps 691 mmHg 81%

    25 October, Thursday

    Time Temperature Precipitation Wind Pressure Humidity
    00:00 +23°C° 0.1 mm 1 mps 690 mmHg 85%
    01:00 +23°C° 0.1 mm 1 mps 690 mmHg 89%
    02:00 +22°C° 1.1 mm 1 mps 690 mmHg 91%
    03:00 +22°C° 1.1 mm 1 mps 690 mmHg 93%
    04:00 +22°C° 1.1 mm 1 mps 690 mmHg 96%
    05:00 +22°C° 0.5 mm 1 mps 691 mmHg 94%
    06:00 +23°C° 0.5 mm 1 mps 691 mmHg 92%
    07:00 +23°C° 0.5 mm 1 mps 692 mmHg 90%
    08:00 +25°C° 0 mm 1 mps 692 mmHg 80%
    09:00 +27°C° 0 mm 1 mps 692 mmHg 70%
    10:00 +29°C° 0 mm 1 mps 692 mmHg 61%
    11:00 +31°C° 0 mm 1 mps 692 mmHg 55%
    12:00 +32°C° 0 mm 1 mps 691 mmHg 49%
    13:00 +34°C° 0 mm 1 mps 690 mmHg 42%
    14:00 +33°C° 0 mm 1 mps 690 mmHg 45%
    15:00 +33°C° 0 mm 1 mps 689 mmHg 47%
    16:00 +30°C° 0 mm 0 mps 689 mmHg 49%
    17:00 +28°C° 0 mm 0 mps 689 mmHg 54%
    18:00 +26°C° 0 mm 0 mps 689 mmHg 60%
    19:00 +24°C° 0 mm 0 mps 690 mmHg 65%
    20:00 +24°C° 0.3 mm 0 mps 690 mmHg 71%
    21:00 +23°C° 0.3 mm 0 mps 690 mmHg 77%
    22:00 +22°C° 0.3 mm 0 mps 690 mmHg 83%
    23:00 +23°C° 0 mm 1 mps 690 mmHg 86%
    Show more